When you browse on this site, cookies collect data to enhance your experience and personalize the content and advertising you see.
Visit our Privacy Policy to learn more. By continuing to use the site, you agree to this use of cookies and data.
  • en France
  • Liste des pays
  • À 7 jours
  • Température de l'eau
  • Carte satellitaire
  • Carte météo
  • Widgets météo
  • user-avatar
    Se connecter

    Météo par heure à Mozuli

    Ce jour, 18 Février, Lundi

    Heure Température Précipitation Vent Pression Humidité
    00:00 -3°C° 0 mm 2 m/s 755 mmHg 90%
    01:00 -3°C° 0 mm 2 m/s 756 mmHg 91%
    02:00 -5°C° 0 mm 2 m/s 756 mmHg 94%
    03:00 -3°C° 0 mm 1 m/s 756 mmHg 94%
    04:00 -3°C° 0 mm 1 m/s 757 mmHg 94%
    05:00 -3°C° 0 mm 1 m/s 757 mmHg 94%
    06:00 -4°C° 0 mm 1 m/s 757 mmHg 93%
    07:00 -4°C° 0 mm 1 m/s 758 mmHg 92%
    08:00 -4°C° 0 mm 1 m/s 758 mmHg 91%
    09:00 -2°C° 0 mm 1 m/s 758 mmHg 84%
    10:00 -2°C° 0 mm 0 m/s 758 mmHg 77%
    11:00 0°C° 0 mm 0 m/s 759 mmHg 69%
    12:00 0°C° 0 mm 0 m/s 758 mmHg 65%
    13:00 +2°C° 0 mm 1 m/s 758 mmHg 62%
    14:00 +3°C° 0 mm 1 m/s 758 mmHg 58%
    15:00 +2°C° 0 mm 1 m/s 758 mmHg 63%
    16:00 -1°C° 0 mm 2 m/s 757 mmHg 69%
    17:00 -2°C° 0 mm 2 m/s 757 mmHg 74%
    18:00 -2°C° 0 mm 2 m/s 757 mmHg 76%
    19:00 -2°C° 0 mm 3 m/s 756 mmHg 78%
    20:00 -4°C° 0 mm 3 m/s 756 mmHg 79%
    21:00 -2°C° 0 mm 3 m/s 756 mmHg 80%
    22:00 -2°C° 0 mm 3 m/s 755 mmHg 80%
    23:00 -3°C° 0 mm 4 m/s 755 mmHg 81%

    Demain, 19 Février, Mardi

    Heure Température Précipitation Vent Pression Humidité
    00:00 -3°C° 0 mm 4 m/s 755 mmHg 82%
    01:00 -3°C° 0 mm 4 m/s 754 mmHg 84%
    02:00 -2°C° 0 mm 4 m/s 754 mmHg 86%
    03:00 -2°C° 0 mm 4 m/s 753 mmHg 87%
    04:00 -2°C° 0 mm 4 m/s 753 mmHg 87%
    05:00 -2°C° 0 mm 4 m/s 752 mmHg 88%
    06:00 -2°C° 0 mm 4 m/s 752 mmHg 88%
    07:00 -2°C° 0 mm 4 m/s 751 mmHg 89%
    08:00 -2°C° 0 mm 4 m/s 751 mmHg 90%
    09:00 -1°C° 0 mm 4 m/s 750 mmHg 88%
    10:00 0°C° 0 mm 5 m/s 750 mmHg 85%
    11:00 +1°C° 0 mm 5 m/s 749 mmHg 83%
    12:00 +1°C° 0 mm 5 m/s 748 mmHg 84%
    13:00 +1°C° 0 mm 5 m/s 748 mmHg 84%
    14:00 +1°C° 0 mm 5 m/s 747 mmHg 84%
    15:00 +1°C° 0 mm 5 m/s 747 mmHg 86%
    16:00 +1°C° 0 mm 5 m/s 746 mmHg 87%
    17:00 +1°C° 0 mm 4 m/s 745 mmHg 88%
    18:00 +1°C° 0 mm 5 m/s 744 mmHg 88%
    19:00 +1°C° 0 mm 5 m/s 744 mmHg 89%
    20:00 +1°C° 0 mm 5 m/s 743 mmHg 89%
    21:00 +1°C° 0 mm 5 m/s 743 mmHg 88%
    22:00 +1°C° 0 mm 5 m/s 742 mmHg 88%
    23:00 +1°C° 0 mm 4 m/s 741 mmHg 87%

    Après-demain, 20 Février, Mercredi

    Heure Température Précipitation Vent Pression Humidité
    00:00 +1°C° 0.1 mm 5 m/s 741 mmHg 88%
    01:00 +1°C° 0.1 mm 5 m/s 741 mmHg 88%
    02:00 +1°C° 0.1 mm 5 m/s 741 mmHg 89%
    03:00 +1°C° 0 mm 5 m/s 741 mmHg 89%
    04:00 +1°C° 0 mm 4 m/s 741 mmHg 90%
    05:00 +1°C° 0 mm 4 m/s 741 mmHg 90%
    06:00 +1°C° 0.1 mm 4 m/s 741 mmHg 89%
    07:00 0°C° 0.1 mm 4 m/s 741 mmHg 88%
    08:00 0°C° 0.1 mm 4 m/s 741 mmHg 87%
    09:00 +1°C° 0 mm 5 m/s 741 mmHg 84%
    10:00 +1°C° 0 mm 5 m/s 741 mmHg 82%
    11:00 +1°C° 0 mm 5 m/s 741 mmHg 79%
    12:00 +1°C° 0 mm 5 m/s 741 mmHg 79%
    13:00 +1°C° 0 mm 5 m/s 741 mmHg 79%
    14:00 +1°C° 0 mm 5 m/s 741 mmHg 78%
    15:00 +1°C° 0 mm 5 m/s 741 mmHg 79%
    16:00 +1°C° 0 mm 5 m/s 741 mmHg 80%
    17:00 0°C° 0 mm 5 m/s 741 mmHg 81%
    18:00 -2°C° 0.1 mm 6 m/s 742 mmHg 77%
    19:00 -3°C° 0.1 mm 6 m/s 742 mmHg 74%
    20:00 -4°C° 0.1 mm 6 m/s 743 mmHg 71%
    21:00 -4°C° 0 mm 6 m/s 743 mmHg 71%
    22:00 -4°C° 0 mm 6 m/s 744 mmHg 71%
    23:00 -5°C° 0 mm 6 m/s 745 mmHg 71%

    21 Février, Jeudi

    Heure Température Précipitation Vent Pression Humidité
    00:00 -5°C° 0 mm 6 m/s 745 mmHg 71%
    01:00 -5°C° 0 mm 6 m/s 746 mmHg 70%
    02:00 -6°C° 0 mm 6 m/s 746 mmHg 69%
    03:00 -6°C° 0 mm 6 m/s 747 mmHg 68%
    04:00 -8°C° 0 mm 6 m/s 747 mmHg 67%
    05:00 -8°C° 0 mm 6 m/s 747 mmHg 66%
    06:00 -8°C° 0 mm 6 m/s 748 mmHg 65%
    07:00 -8°C° 0 mm 6 m/s 749 mmHg 64%
    08:00 -8°C° 0 mm 5 m/s 749 mmHg 62%
    09:00 -8°C° 0 mm 6 m/s 750 mmHg 60%
    10:00 -8°C° 0 mm 6 m/s 750 mmHg 58%
    11:00 -8°C° 0 mm 6 m/s 751 mmHg 56%
    12:00 -8°C° 0 mm 6 m/s 752 mmHg 56%
    13:00 -6°C° 0 mm 6 m/s 752 mmHg 55%
    14:00 -6°C° 0 mm 6 m/s 753 mmHg 55%
    15:00 -7°C° 0 mm 5 m/s 753 mmHg 57%
    16:00 -7°C° 0 mm 5 m/s 754 mmHg 59%
    17:00 -7°C° 0 mm 5 m/s 755 mmHg 61%
    18:00 -8°C° 0 mm 5 m/s 755 mmHg 62%
    19:00 -8°C° 0 mm 5 m/s 756 mmHg 64%
    20:00 -10°C° 0 mm 5 m/s 757 mmHg 65%
    21:00 -9°C° 0 mm 4 m/s 758 mmHg 65%
    22:00 -9°C° 0 mm 4 m/s 759 mmHg 66%
    23:00 -9°C° 0 mm 4 m/s 759 mmHg 66%

    22 Février, Vendredi

    Heure Température Précipitation Vent Pression Humidité
    00:00 -10°C° 0 mm 4 m/s 760 mmHg 67%
    01:00 -10°C° 0 mm 4 m/s 761 mmHg 68%
    02:00 -9°C° 0 mm 3 m/s 762 mmHg 69%
    03:00 -9°C° 0 mm 3 m/s 762 mmHg 69%
    04:00 -10°C° 0 mm 3 m/s 763 mmHg 70%
    05:00 -10°C° 0 mm 3 m/s 764 mmHg 70%
    06:00 -10°C° 0 mm 3 m/s 764 mmHg 70%
    07:00 -10°C° 0 mm 3 m/s 765 mmHg 70%
    08:00 -10°C° 0 mm 3 m/s 766 mmHg 71%
    09:00 -9°C° 0 mm 3 m/s 766 mmHg 68%
    10:00 -8°C° 0 mm 3 m/s 767 mmHg 64%
    11:00 -7°C° 0 mm 3 m/s 768 mmHg 61%
    12:00 -6°C° 0 mm 3 m/s 768 mmHg 58%
    13:00 -5°C° 0 mm 2 m/s 768 mmHg 55%
    14:00 -4°C° 0 mm 2 m/s 768 mmHg 51%
    15:00 -4°C° 0 mm 2 m/s 769 mmHg 54%
    16:00 -5°C° 0 mm 2 m/s 769 mmHg 56%
    17:00 -3°C° 0 mm 1 m/s 769 mmHg 59%
    18:00 -3°C° 0 mm 1 m/s 769 mmHg 60%
    19:00 -4°C° 0 mm 1 m/s 769 mmHg 62%
    20:00 -4°C° 0 mm 1 m/s 769 mmHg 64%
    21:00 -6°C° 0 mm 2 m/s 769 mmHg 62%
    22:00 -6°C° 0 mm 2 m/s 769 mmHg 60%
    23:00 -7°C° 0 mm 3 m/s 768 mmHg 58%

    23 Février, Samedi

    Heure Température Précipitation Vent Pression Humidité
    00:00 -6°C° 0 mm 3 m/s 768 mmHg 55%
    01:00 -6°C° 0 mm 3 m/s 767 mmHg 52%
    02:00 -7°C° 0 mm 4 m/s 767 mmHg 48%
    03:00 -5°C° 0.1 mm 4 m/s 766 mmHg 55%
    04:00 -5°C° 0.1 mm 4 m/s 765 mmHg 61%
    05:00 -5°C° 0.1 mm 4 m/s 764 mmHg 67%
    06:00 -7°C° 0.8 mm 4 m/s 763 mmHg 75%
    07:00 -7°C° 0.8 mm 5 m/s 762 mmHg 84%
    08:00 -7°C° 0.8 mm 5 m/s 761 mmHg 92%
    09:00 -6°C° 0.8 mm 5 m/s 760 mmHg 90%
    10:00 -5°C° 0.8 mm 5 m/s 759 mmHg 88%
    11:00 -4°C° 0.8 mm 5 m/s 758 mmHg 86%
    12:00 -1°C° 0 mm 5 m/s 758 mmHg 86%
    13:00 0°C° 0 mm 5 m/s 757 mmHg 87%
    14:00 +1°C° 0 mm 4 m/s 756 mmHg 87%
    15:00 +1°C° 0 mm 4 m/s 756 mmHg 90%
    16:00 +2°C° 0 mm 3 m/s 756 mmHg 92%
    17:00 +2°C° 0 mm 3 m/s 755 mmHg 95%
    18:00 +2°C° 0 mm 3 m/s 756 mmHg 95%
    19:00 +2°C° 0 mm 3 m/s 756 mmHg 95%
    20:00 +2°C° 0 mm 3 m/s 756 mmHg 95%
    21:00 +1°C° 0 mm 3 m/s 757 mmHg 95%
    22:00 +1°C° 0 mm 3 m/s 757 mmHg 95%
    23:00 0°C° 0 mm 3 m/s 757 mmHg 96%
    Voir plus